Wisconsin Rapids, WI

7:12 AM CDT on August 23, 2017 (GMT -0500)
Alexander Field South Wood County

Weather History for KISW - August, 2013

Change the Weather History Date:

Tuesday, August 20, 2013

  Actual Average Record
Temperature  
Mean Temperature 76 °F -  
Max Temperature 89 °F 78 °F 97 °F (1955)
Min Temperature 63 °F 53 °F 37 °F (1950)
Cooling Degree Days 10    
Growing Degree Days 26 (Base 50)    
Moisture  
Dew Point 63 °F    
Average Humidity 65    
Maximum Humidity 93    
Minimum Humidity 43    
Precipitation  
Precipitation 0.00 in - - ()
Sea Level Pressure  
Sea Level Pressure 30.00 in    
Wind  
Wind Speed 8 mph (SSW)    
Max Wind Speed 16 mph    
Max Gust Speed 24 mph    
Visibility 9 miles    
Events      
Averages and records for this station are not official NWS values.
T = Trace of Precipitation, MM = Missing Value Source: NWS Daily Summary

Daily Weather History Graph

Daily Weather History Graph

Search for Another Location

Airport or City:

Trip Planner

Search our weather history database for the weather conditions in past years. The results will help you decide how hot, cold, wet, or windy it might be!

Date:

Astronomy

Aug. 20, 2013 Rise Set
Actual Time 6:08 AM CDT 7:55 PM CDT
Civil Twilight 5:37 AM CDT 8:26 PM CDT
Nautical Twilight 4:59 AM CDT 9:04 PM CDT
Astronomical Twilight 4:18 AM CDT 9:45 PM CDT
Moon 7:24 PM CDT (8/20) 5:39 AM CDT (8/20)
Length of Visible Light 14h 49m
Length of Day
13h 47m
Full, 100% of the Moon is Illuminated
Aug 20
Full
Aug 20
Full
Aug 28
Last Quarter
Sep 5
New
Sep 12
First Quarter

Hourly Weather History & Observations

Time (CDT) Temp. Heat Index Dew Point Humidity Pressure Visibility Wind Dir Wind Speed Gust Speed Precip Events Conditions
12:54 AM 66.9 °F - 62.1 °F 84% 30.01 in 10.0 mi SSW 6.9 mph - N/A   Clear
1:54 AM 66.9 °F - 62.1 °F 84% 30.01 in 9.0 mi SSW 3.5 mph - N/A   Clear
2:54 AM 63.0 °F - 61.0 °F 93% 30.01 in 7.0 mi SSE 3.5 mph - N/A   Clear
3:54 AM 63.0 °F - 60.1 °F 90% 30.01 in 8.0 mi South 4.6 mph - N/A   Clear
4:54 AM 64.0 °F - 61.0 °F 90% 30.00 in 9.0 mi South 5.8 mph - N/A   Mostly Cloudy
5:54 AM 64.0 °F - 61.0 °F 90% 30.02 in 8.0 mi South 4.6 mph - 0.00 in   Scattered Clouds
6:54 AM 64.9 °F - 61.0 °F 87% 30.03 in 7.0 mi South 5.8 mph - N/A   Scattered Clouds
7:54 AM 68.0 °F - 62.1 °F 81% 30.04 in 8.0 mi South 4.6 mph - N/A   Partly Cloudy
8:54 AM 73.9 °F - 63.0 °F 68% 30.04 in 10.0 mi South 6.9 mph - N/A   Partly Cloudy
9:54 AM 79.0 °F - 63.0 °F 58% 30.04 in 10.0 mi SSW 9.2 mph - N/A   Clear
10:54 AM 82.9 °F 84.4 °F 64.0 °F 53% 30.03 in 10.0 mi SSW 9.2 mph - N/A   Partly Cloudy
11:54 AM 84.9 °F 86.1 °F 64.0 °F 49% 30.02 in 10.0 mi SSW 11.5 mph 20.7 mph N/A   Clear
12:54 PM 88.0 °F 89.3 °F 64.0 °F 45% 30.01 in 10.0 mi SSW 12.7 mph - N/A   Partly Cloudy
1:54 PM 87.1 °F 87.8 °F 63.0 °F 44% 30.00 in 10.0 mi SSW 15.0 mph - N/A   Mostly Cloudy
2:54 PM 87.1 °F 87.5 °F 62.1 °F 43% 29.99 in 10.0 mi SSW 12.7 mph 24.2 mph N/A   Mostly Cloudy
3:54 PM 88.0 °F 88.7 °F 63.0 °F 43% 29.97 in 10.0 mi SSW 16.1 mph 24.2 mph N/A   Scattered Clouds
4:54 PM 86.0 °F 86.8 °F 63.0 °F 46% 29.97 in 10.0 mi South 12.7 mph 19.6 mph N/A   Clear
5:54 PM 84.0 °F 85.4 °F 64.0 °F 51% 29.97 in 10.0 mi SSW 15.0 mph 23.0 mph N/A   Mostly Cloudy
6:54 PM 82.9 °F 84.6 °F 64.9 °F 54% 29.96 in 10.0 mi SSW 9.2 mph - N/A   Clear
7:54 PM 81.0 °F 82.5 °F 64.0 °F 56% 29.96 in 10.0 mi SSW 6.9 mph - N/A   Scattered Clouds
8:54 PM 80.1 °F 81.7 °F 64.0 °F 58% 29.98 in 10.0 mi SSW 6.9 mph - N/A   Mostly Cloudy
9:54 PM 79.0 °F - 64.9 °F 62% 29.99 in 10.0 mi SSW 11.5 mph 18.4 mph N/A   Overcast
10:54 PM 78.1 °F - 64.9 °F 64% 29.98 in 10.0 mi South 8.1 mph - N/A   Overcast
11:54 PM 77.0 °F - 64.0 °F 64% 29.98 in 10.0 mi South 6.9 mph - N/A   Overcast